[[{"header":{"parameterUnit":"m.s-1","parameterCategory":1,"la1":30.2991,"la2":30.254,"lo1":-89.0895,"lo2":-89.0444,"dy":0.0017,"dx":0.0017,"nx":28,"ny":28,"refTime":"2025-08-09T21:00:00:Z","depth":0,"parameterNumber":2,"parameterNumberName":"U-component_of_WINDS"},"data":[0,0,0,0,0,0,0,0,0,0,0,0,0,0,0,0,0,0,0,0,0,0,0,0,0,0,0,0,0,0,0,0,0,0,0,0,0,0,0,0,0,0,0,0,0,0,0,0,0,0,0,0,0,0,0,0,0,0,-4.2471,-4.2471,0,-4.2465,-4.2465,-4.2465,-4.2373,-4.237,-4.2368,-4.2366,-4.2359,-4.2361,-4.2363,0,0,0,0,0,0,0,0,0,0,0,0,0,-4.2403,-4.2405,-4.2471,-4.2471,-4.2471,-4.2465,-4.2465,-4.2465,-4.2373,-4.237,-4.2368,-4.2365,-4.2358,-4.2361,-4.2363,0,0,0,0,0,0,0,0,0,0,0,0,0,-4.2419,-4.2405,-4.2471,-4.2425,-4.242,-4.2465,-4.2465,-4.2465,-4.2374,-4.237,-4.2367,-4.2363,-4.2358,-4.236,-4.2363,-4.2452,0,0,-4.2373,-4.2374,0,0,0,0,0,0,0,0,-4.2418,-4.2421,-4.2432,-4.2428,-4.2423,-4.2416,-4.2438,-4.2461,-4.2375,-4.2392,-4.2366,-4.2362,-4.2381,-4.2382,-4.2388,-4.2452,-4.2452,-4.2373,-4.2375,-4.2376,-4.2377,0,0,0,0,0,0,0,-4.2417,-4.2421,-4.2469,-4.2432,-4.2427,-4.2404,-4.2402,-4.2442,-4.2406,-4.239,-4.2383,-4.2384,-4.2378,-4.2386,-4.2387,-4.2451,-4.2373,-4.2375,-4.2377,-4.2378,-4.2589,-4.2592,0,0,0,0,0,0,-4.2422,-4.2421,-4.2469,-4.2469,-4.2412,-4.2408,-4.2406,-4.2422,-4.2405,-4.2399,-4.2387,-4.2379,-4.2382,-4.2384,-4.2387,-4.249,-4.2376,-4.2379,-4.238,-4.2585,-4.259,-4.2594,0,0,0,0,0,0,-4.2421,-4.2428,-4.2469,-4.2443,-4.2446,-4.2413,-4.2432,-4.2424,-4.2431,-4.2403,-4.2396,-4.2401,-4.2379,-4.2383,-4.2437,-4.2489,-4.238,-4.2383,-4.2581,-4.2587,-4.2592,-4.2698,0,0,0,0,0,0,-4.242,-4.2428,-4.2461,-4.2444,-4.2448,-4.252,-4.2435,-4.2426,-4.2437,-4.2427,-4.2415,-4.2409,-4.2377,-4.2433,-4.244,-4.2491,-4.2385,-4.2576,-4.2583,-4.259,-4.269,-4.2707,-4.2721,0,0,0,0,0,-4.2418,-4.2491,-4.2463,-4.247,-4.2489,-4.2523,-4.2525,-4.2487,-4.2441,-4.2475,-4.2457,-4.241,-4.2482,-4.2439,-4.2446,-4.2499,-4.2572,-4.2581,-4.2589,-4.2683,-4.2703,-4.2721,0,0,0,0,0,0,-4.2514,-4.2488,-4.2457,-4.2527,-4.2528,-4.2507,-4.2548,-4.251,-4.2523,-4.2514,-4.2465,-4.2463,-4.2525,-4.2517,-4.247,-4.2585,-4.2519,-4.253,-4.2588,-4.2607,-4.2623,-4.2623,-4.2388,0,0,0,0,0,-4.2543,-4.2573,-4.2548,-4.2613,-4.2615,-4.2582,-4.2595,-4.2566,-4.2565,-4.2564,-4.255,-4.2551,-4.2574,-4.259,-4.2609,-4.2688,-4.2685,-4.2728,-4.2744,-4.2757,-4.2767,-4.2809,-4.2828,-4.2622,-4.2622,-4.2622,0,0,-4.2604,-4.2594,-4.2615,-4.2632,-4.2629,-4.2661,-4.2583,-4.262,-4.2643,-4.257,-4.2621,-4.2611,-4.2608,-4.2676,-4.2705,-4.2671,-4.2823,-4.2768,-4.2778,-4.2781,-4.282,-4.2839,-4.2857,-4.2628,-4.2627,-4.2626,0,0,-4.2732,-4.2727,-4.278,-4.278,-4.2777,-4.2755,-4.2768,-4.2753,-4.2744,-4.2794,-4.274,-4.2767,-4.2808,-4.2809,-4.2814,-4.2944,-4.2902,-4.2952,-4.3034,-4.3076,-4.3092,-4.3106,-4.3153,-4.3171,-4.2962,-4.2962,-4.2962,0,-4.2808,-4.2854,-4.2812,-4.2853,-4.2863,-4.2799,-4.2853,-4.2854,-4.2858,-4.2866,-4.2828,-4.2878,-4.2872,-4.2939,-4.2971,-4.2978,-4.2991,-4.2953,-4.3093,-4.3107,-4.312,-4.3164,-4.3182,-4.2968,-4.2967,-4.2967,-4.2966,0,-4.2948,-4.2981,-4.3025,-4.3031,-4.3045,-4.3092,-4.3058,-4.3077,-4.3047,-4.3029,-4.3082,-4.3072,-4.3089,-4.3103,-4.3073,-4.3166,-4.3146,-4.3102,-4.3035,-4.3146,-4.3187,-4.3204,-4.2977,-4.2975,-4.2973,-4.2971,0,0,-4.3135,-4.3119,-4.3136,-4.3138,-4.3131,-4.3156,-4.3201,-4.3218,-4.3236,-4.3241,-4.3278,-4.3314,-4.3274,-4.328,-4.325,-4.3287,-4.3392,-4.3238,-4.3237,-4.3268,-4.3495,-4.3529,-4.3549,-4.3364,-4.3367,-4.3369,-4.3496,0,-4.3259,-4.3335,-4.3299,-4.3379,-4.341,-4.335,-4.3389,-4.339,-4.3374,-4.3398,-4.338,-4.3407,-4.3351,-4.3355,-4.3389,-4.3372,-4.3437,-4.3362,-4.3398,-4.3399,-4.3401,-4.357,-4.3606,-4.3726,-4.3511,-4.3514,-4.3516,0,-4.3413,-4.3426,-4.351,-4.3498,-4.351,-4.3546,-4.3559,-4.3582,-4.3582,-4.3568,-4.3577,-4.3539,-4.3582,-4.3516,-4.3575,-4.3526,-4.3538,-4.3532,-4.3536,-4.3538,-4.3465,-4.3578,-4.3763,-4.3781,-4.354,-4.3538,-4.3537,0,-4.3542,-4.358,-4.3635,-4.3639,-4.3627,-4.3654,-4.3651,-4.3646,-4.3659,-4.3671,-4.3679,-4.3696,-4.3706,-4.3719,-4.3687,-4.3642,-4.3752,-4.3682,-4.3742,-4.3743,-4.3768,-4.3767,-4.3958,-4.3775,-4.3775,-4.3775,-4.3774,0,-4.3684,-4.3738,-4.3693,-4.3727,-4.3786,-4.3745,-4.3804,-4.3793,-4.3791,-4.3822,-4.3771,-4.3801,-4.3756,-4.3782,-4.3757,-4.3811,-4.3816,-4.3806,-4.3799,-4.3811,-4.3812,-4.3818,-4.3809,-4.378,-4.3779,-4.3778,-4.3777,0,-4.3838,-4.3811,-4.3867,-4.3852,-4.3849,-4.3893,-4.388,-4.3911,-4.3892,-4.3933,-4.3939,-4.3911,-4.3939,-4.3908,-4.3934,-4.3917,-4.399,-4.397,-4.399,-4.3985,-4.4046,-4.4041,-4.4249,-4.4274,-4.4075,-4.4077,-4.4079,0,-4.3931,-4.3971,-4.396,-4.3978,-4.3978,-4.4006,-4.402,-4.3981,-4.3997,-4.4,-4.4031,-4.4055,-4.4072,-4.412,-4.4102,-4.4121,-4.4102,-4.4173,-4.4104,-4.4116,-4.4104,-4.4102,-4.4106,-4.4187,-4.419,-4.4192,-4.4193,0,-4.4098,-4.4083,-4.4104,-4.4122,-4.414,-4.4152,-4.4159,-4.4177,-4.4136,-4.4157,-4.4186,-4.4199,-4.4226,-4.4251,-4.4266,-4.4261,-4.4222,-4.4215,-4.423,-4.4243,-4.4253,-4.4249,-4.4029,-4.4211,-4.4209,-4.4208,-4.4207,-4.4206,-4.4224,-4.4258,-4.4256,-4.4282,-4.4284,-4.4293,-4.4322,-4.4308,-4.4331,-4.435,-4.4326,-4.4362,-4.4361,-4.4377,-4.4378,-4.4405,-4.4375,-4.4396,-4.4401,-4.4407,-4.4417,-4.4249,-4.4407,-4.4407,-4.4406,-4.4406,-4.4406,0,-4.439,-4.4386,-4.4411,-4.4424,-4.4445,-4.4406,-4.4413,-4.4433,-4.4465,-4.4468,-4.4486,-4.452,-4.4544,-4.4528,-4.4549,-4.4574,-4.4556,-4.4581,-4.4579,-4.4579,-4.4443,-4.4428,-4.4595,-4.4595,-4.4595,-4.4595,-4.4595,-4.4595,-4.4478,-4.4533,-4.4518,-4.4574,-4.4569,-4.4604,-4.4612,-4.462,-4.4622,-4.4662,-4.4683,-4.4672,-4.4668,-4.4688,-4.4709,-4.4703,-4.4713,-4.4745,-4.4733,-4.4607,-4.4588,-4.457,-4.4556,-4.4747,-4.4748,-4.4867,-4.4868,-4.4869]},{"header":{"parameterUnit":"m.s-1","parameterCategory":1,"la1":30.2991,"la2":30.254,"lo1":-89.0895,"lo2":-89.0444,"dy":0.0017,"dx":0.0017,"nx":28,"ny":28,"refTime":"2025-08-09T21:00:00:Z","depth":0,"parameterNumber":3,"parameterNumberName":"V-component_of_WINDS"},"data":[0,0,0,0,0,0,0,0,0,0,0,0,0,0,0,0,0,0,0,0,0,0,0,0,0,0,0,0,0,0,0,0,0,0,0,0,0,0,0,0,0,0,0,0,0,0,0,0,0,0,0,0,0,0,0,0,0,0,-2.3291,-2.3291,0,-2.33,-2.33,-2.33,-2.3271,-2.327,-2.327,-2.3269,-2.3277,-2.3278,-2.3279,0,0,0,0,0,0,0,0,0,0,0,0,0,-2.3249,-2.325,-2.3291,-2.3291,-2.3291,-2.33,-2.33,-2.33,-2.3271,-2.327,-2.3269,-2.3268,-2.3277,-2.3278,-2.328,0,0,0,0,0,0,0,0,0,0,0,0,0,-2.3264,-2.3251,-2.3291,-2.3278,-2.3277,-2.33,-2.33,-2.33,-2.3272,-2.327,-2.3269,-2.3268,-2.3277,-2.3278,-2.328,-2.3315,0,0,-2.3284,-2.3285,0,0,0,0,0,0,0,0,-2.3263,-2.3265,-2.328,-2.3279,-2.3278,-2.3283,-2.3288,-2.3305,-2.3272,-2.3274,-2.3269,-2.3267,-2.328,-2.3282,-2.3286,-2.3316,-2.3316,-2.3285,-2.3286,-2.3286,-2.3287,0,0,0,0,0,0,0,-2.3262,-2.3265,-2.3295,-2.328,-2.3279,-2.3272,-2.3272,-2.3291,-2.3284,-2.3274,-2.3271,-2.3273,-2.328,-2.3285,-2.3286,-2.3316,-2.3285,-2.3286,-2.3287,-2.3288,-2.3375,-2.3376,0,0,0,0,0,0,-2.3263,-2.3264,-2.3294,-2.3295,-2.3267,-2.3273,-2.3274,-2.3283,-2.3284,-2.3283,-2.3274,-2.3272,-2.3283,-2.3284,-2.3286,-2.3328,-2.3286,-2.3288,-2.3289,-2.3373,-2.3375,-2.3377,0,0,0,0,0,0,-2.3262,-2.3266,-2.3294,-2.3279,-2.3282,-2.3276,-2.3286,-2.3284,-2.3289,-2.3284,-2.3283,-2.328,-2.3282,-2.3284,-2.3308,-2.3328,-2.3288,-2.329,-2.3372,-2.3374,-2.3376,-2.3411,0,0,0,0,0,0,-2.3261,-2.3266,-2.3279,-2.3279,-2.3283,-2.3316,-2.3287,-2.3285,-2.3291,-2.3288,-2.329,-2.3289,-2.3281,-2.3306,-2.331,-2.3329,-2.3291,-2.337,-2.3373,-2.3375,-2.3409,-2.3414,-2.342,0,0,0,0,0,-2.326,-2.3289,-2.328,-2.3284,-2.33,-2.3317,-2.3319,-2.3309,-2.3293,-2.3307,-2.3304,-2.3289,-2.3325,-2.3309,-2.3313,-2.3333,-2.3369,-2.3372,-2.3375,-2.3406,-2.3413,-2.3419,0,0,0,0,0,0,-2.3292,-2.3289,-2.3279,-2.331,-2.3314,-2.3312,-2.3329,-2.3317,-2.3326,-2.3323,-2.331,-2.3311,-2.3337,-2.3337,-2.3319,-2.3367,-2.3344,-2.3348,-2.3366,-2.3373,-2.3379,-2.3378,-2.3292,0,0,0,0,0,-2.3302,-2.3317,-2.3313,-2.3341,-2.3343,-2.3336,-2.3343,-2.3335,-2.3339,-2.3341,-2.334,-2.3344,-2.3356,-2.3364,-2.3375,-2.3408,-2.3408,-2.3424,-2.3429,-2.3434,-2.3438,-2.3455,-2.3462,-2.3387,-2.3387,-2.3387,0,0,-2.3324,-2.3325,-2.3335,-2.3347,-2.335,-2.3365,-2.3338,-2.3355,-2.3366,-2.3343,-2.3366,-2.3365,-2.3369,-2.3398,-2.341,-2.3399,-2.3458,-2.3438,-2.3442,-2.3443,-2.3459,-2.3466,-2.3472,-2.3389,-2.3389,-2.3388,0,0,-2.3373,-2.3374,-2.3397,-2.34,-2.3404,-2.3399,-2.3404,-2.3404,-2.3403,-2.3425,-2.3408,-2.3421,-2.3442,-2.3446,-2.345,-2.3499,-2.3486,-2.3503,-2.3532,-2.3549,-2.3555,-2.356,-2.3578,-2.3584,-2.3506,-2.3507,-2.3507,0,-2.34,-2.3422,-2.341,-2.3429,-2.3435,-2.3414,-2.3437,-2.344,-2.3448,-2.3452,-2.3439,-2.3465,-2.3466,-2.3495,-2.3507,-2.3511,-2.3517,-2.3503,-2.3555,-2.356,-2.3565,-2.3581,-2.3588,-2.3509,-2.3508,-2.3508,-2.3508,0,-2.3455,-2.3471,-2.3489,-2.3497,-2.3504,-2.3525,-2.3516,-2.3525,-2.3516,-2.3512,-2.3535,-2.3535,-2.3546,-2.3552,-2.3543,-2.358,-2.3572,-2.3557,-2.3534,-2.3574,-2.359,-2.3596,-2.3512,-2.3511,-2.351,-2.351,0,0,-2.3526,-2.3525,-2.3532,-2.3535,-2.3537,-2.3549,-2.3568,-2.3579,-2.3587,-2.3592,-2.3608,-2.3626,-2.3612,-2.3617,-2.3608,-2.3623,-2.3662,-2.3606,-2.3606,-2.3617,-2.3702,-2.3714,-2.3722,-2.3652,-2.3654,-2.3655,-2.3702,0,-2.3573,-2.3607,-2.3596,-2.363,-2.3644,-2.3624,-2.3641,-2.3644,-2.364,-2.3652,-2.3648,-2.3661,-2.3641,-2.3644,-2.3658,-2.3654,-2.3679,-2.365,-2.3667,-2.3668,-2.3668,-2.3729,-2.3742,-2.3787,-2.3708,-2.3709,-2.3709,0,-2.3634,-2.3641,-2.3677,-2.3676,-2.3681,-2.3697,-2.3705,-2.3716,-2.3719,-2.3715,-2.3721,-2.3709,-2.3727,-2.3703,-2.3729,-2.371,-2.3716,-2.3715,-2.3716,-2.3718,-2.3692,-2.3734,-2.3801,-2.3808,-2.3719,-2.3718,-2.3717,0,-2.3682,-2.3701,-2.3724,-2.3727,-2.3727,-2.3738,-2.3739,-2.374,-2.3747,-2.3754,-2.3758,-2.3767,-2.3772,-2.3779,-2.377,-2.3753,-2.3797,-2.3772,-2.3794,-2.3795,-2.3805,-2.3805,-2.3875,-2.3808,-2.3808,-2.3808,-2.3808,0,-2.3737,-2.3759,-2.3746,-2.376,-2.3784,-2.3771,-2.3796,-2.3794,-2.3795,-2.3809,-2.3792,-2.3805,-2.3791,-2.3803,-2.3796,-2.3818,-2.382,-2.3818,-2.3816,-2.382,-2.382,-2.3824,-2.3821,-2.381,-2.3809,-2.3809,-2.3809,0,-2.3795,-2.3787,-2.3811,-2.3809,-2.3808,-2.3826,-2.3824,-2.3837,-2.3832,-2.385,-2.3853,-2.3845,-2.3858,-2.3849,-2.3862,-2.3857,-2.3886,-2.3879,-2.3885,-2.3884,-2.3907,-2.3905,-2.3983,-2.3992,-2.3919,-2.3919,-2.392,0,-2.3831,-2.3848,-2.3847,-2.3855,-2.3856,-2.3869,-2.3876,-2.3863,-2.3871,-2.3875,-2.3887,-2.3899,-2.3907,-2.3929,-2.3924,-2.3934,-2.3927,-2.3954,-2.3929,-2.3932,-2.3928,-2.3928,-2.3929,-2.3959,-2.396,-2.3961,-2.3961,0,-2.3896,-2.3891,-2.3901,-2.391,-2.3918,-2.3924,-2.3929,-2.3937,-2.3924,-2.3933,-2.3946,-2.3953,-2.3965,-2.3977,-2.3985,-2.3985,-2.3971,-2.3969,-2.3975,-2.398,-2.3983,-2.3982,-2.39,-2.3968,-2.3967,-2.3967,-2.3966,-2.3966,-2.3945,-2.3958,-2.396,-2.3972,-2.3974,-2.3979,-2.3991,-2.3987,-2.3997,-2.4007,-2.3999,-2.4014,-2.4016,-2.4025,-2.4026,-2.4038,-2.4027,-2.4036,-2.4038,-2.404,-2.4044,-2.398,-2.4039,-2.4039,-2.4039,-2.4039,-2.4039,0,-2.4009,-2.4009,-2.402,-2.4027,-2.4036,-2.4022,-2.4026,-2.4035,-2.4049,-2.4051,-2.406,-2.4074,-2.4085,-2.4081,-2.409,-2.4101,-2.4095,-2.4104,-2.4103,-2.4103,-2.4053,-2.4047,-2.4108,-2.4108,-2.4108,-2.4108,-2.4108,-2.4108,-2.4044,-2.4066,-2.4061,-2.4085,-2.4084,-2.4099,-2.4103,-2.4107,-2.4109,-2.4126,-2.4135,-2.4132,-2.4132,-2.4141,-2.415,-2.4149,-2.4153,-2.4165,-2.4161,-2.4114,-2.4107,-2.4101,-2.4095,-2.4166,-2.4166,-2.4211,-2.4211,-2.4211]}]]